Hourly Data Report for October 29, 2014

All times are specified in Local Standard Time (LST). Add 1 hour to adjust for Daylight Saving Time where and when it is observed.

ST LEONARD CS
NEW BRUNSWICK

47°09'28.050" N
67°49'55.014" W
245.00 m
810I001
71019
WIY

Download Data

Hourly Data (October 2014)
Hourly Data Report for October 29, 2014
Temp Definition
°C
Dew Point Temp Definition
°C
Rel Hum Definition
%
Wind Dir Definition
10's deg

Wind Spd Definition
km/h
Visibility Definition
km
Stn Press Definition
kPa
Hmdx Definition


Wind Chill Definition


Weather Definition


TIME
00:00 5.9 4.3 89 15 4   98.47     LegendNANA
01:00 5.5 3.9 90 13 2   98.45     LegendNANA
02:00 5.5 3.9 90 15 2   98.41     LegendNANA
03:00 6.5 4.4 86 16 5   98.33     LegendNANA
04:00 6.4 4.9 90 15 3   98.28     LegendNANA
05:00 6.4 5.5 94 15 3   98.23     LegendNANA
06:00 6.6 6.0 96 15 2   98.17     LegendNANA
07:00 6.9 6.6 98 15 2   98.10     LegendNANA
08:00 7.3 7.0 98 15 2   98.07     LegendNANA
09:00 7.8 7.5 98 15 4   98.01     LegendNANA
10:00 8.5 8.2 98 18 1   97.98     LegendNANA
11:00 9.0 8.7 98 18 3   97.92     LegendNANA
12:00 9.1 8.8 98 17 2   97.84     LegendNANA
13:00 9.2 8.9 98 19 1   97.78     LegendNANA
14:00 9.6 9.4 98 16 1   97.73     LegendNANA
15:00 9.9 9.6 98 16 2   97.69     LegendNANA
16:00 10.5 10.2 98 18 2   97.68     LegendNANA
17:00 10.5 10.2 98 20 2   97.67     LegendNANA
18:00 10.6 10.3 98 17 2   97.62     LegendNANA
19:00 10.7 10.4 98 18 3   97.58     LegendNANA
20:00 10.9 10.6 98 20 3   97.58     LegendNANA
21:00 10.4 9.0 91 23 4   97.61     LegendNANA
22:00 9.3 8.0 91 25 2   97.61     LegendNANA
23:00 8.5 6.9 90 23 2   97.57     LegendNANA

Notes on Data Quality.

Legend

  • E = Estimated
  • M = Missing
  • NA = Not Available
  • ‡ = Partner data that is not subject to review by the National Climate Archives
Date modified: